CW9825 Weather Reports


time (UTC)temp
C
wind
direction
speed
KPH
gust
KPH
rain 1hr
cm
rain 24hr
cm
rain mn
cm
humidity
%
barometer
mb
20260508010056 15 350 9.7 20.9 0.00 0.00 0.00 29 1006.7
20260508005555 15 329 14.5 20.9 0.00 0.00 0.00 29 1006.6
20260508005051 15 302 8.0 19.3 0.00 0.00 0.00 28 1006.6
20260508004559 15 327 8.0 19.3 0.00 0.00 0.00 29 1006.6
20260508004051 15 305 3.2 19.3 0.00 0.00 0.00 28 1006.6
20260508003551 16 298 6.4 17.7 0.00 0.00 0.00 28 1006.6
20260508003051 16 308 9.7 22.5 0.00 0.00 0.00 27 1006.6
20260508002551 16 303 8.0 22.5 0.00 0.00 0.00 28 1006.5
20260508002051 16 315 11.3 19.3 0.00 0.00 0.00 28 1006.6
20260508001551 16 316 11.3 19.3 0.00 0.00 0.00 28 1006.6
20260508001050 16 259 8.0 19.3 0.00 0.00 0.00 28 1006.6
20260508000550 16 316 9.7 20.9 0.00 0.00 0.00 28 1006.6
20260508000052 16 289 9.7 25.7 0.00 0.00 0.00 28 1006.7
20260507235550 16 287 11.3 33.8 0.00 0.00 0.00 28 1006.6
20260507235049 16 360 14.5 33.8 0.00 0.00 0.00 28 1006.6
20260507234549 16 258 11.3 24.1 0.00 0.00 0.00 28 1006.7
20260507234048 16 269 8.0 24.1 0.00 0.00 0.00 28 1006.6
20260507233548 16 346 4.8 24.1 0.00 0.00 0.00 28 1006.8
20260507233048 16 286 8.0 24.1 0.00 0.00 0.00 28 1006.8
20260507232547 16 293 8.0 24.1 0.00 0.00 0.00 29 1006.8
20260507232048 16 286 8.0 24.1 0.00 0.00 0.00 28 1006.9
20260507231546 16 327 6.4 29.0 0.00 0.00 0.00 28 1006.8
20260507231046 16 302 14.5 29.0 0.00 0.00 0.00 28 1006.9
20260507230548 16 332 12.9 29.0 0.00 0.00 0.00 28 1006.9
20260507225546 16 319 12.9 20.9 0.00 0.00 0.00 28 1007.0
20260507225044 16 306 6.4 25.7 0.00 0.00 0.00 29 1007.0
20260507224547 16 263 8.0 25.7 0.00 0.00 0.00 28 1007.2
20260507224042 16 273 9.7 29.0 0.00 0.00 0.00 29 1007.1
20260507223542 16 274 14.5 29.0 0.00 0.00 0.00 28 1007.0
20260507223042 16 329 17.7 27.4 0.00 0.00 0.00 28 1007.1
20260507222542 16 298 4.8 22.5 0.00 0.00 0.00 28 1007.2
20260507222040 16 287 11.3 19.3 0.00 0.00 0.00 29 1007.3
20260507221543 16 263 9.7 20.9 0.00 0.00 0.00 28 1007.3
20260507221039 15 300 8.0 20.9 0.00 0.00 0.00 29 1007.3
20260507220542 16 263 8.0 22.5 0.00 0.00 0.00 29 1007.4
20260507220041 16 270 11.3 25.7 0.00 0.00 0.00 29 1007.4
20260507215538 16 309 11.3 37.0 0.00 0.00 0.00 28 1007.5
20260507215037 16 266 14.5 37.0 0.00 0.00 0.00 29 1007.5
20260507214538 16 269 11.3 33.8 0.00 0.00 0.00 29 1007.6
20260507214036 15 315 9.7 22.5 0.00 0.00 0.00 29 1007.6
20260507213536 16 267 11.3 25.7 0.00 0.00 0.00 29 1007.9
20260507213034 16 323 12.9 25.7 0.00 0.00 0.00 29 1008.0
20260507212534 15 294 9.7 27.4 0.00 0.00 0.00 30 1007.9
20260507212033 15 336 14.5 27.4 0.00 0.00 0.00 30 1008.0
20260507211533 15 321 8.0 24.1 0.00 0.00 0.00 31 1008.1
20260507211033 15 279 9.7 25.7 0.00 0.00 0.00 29 1008.1
20260507210533 15 280 14.5 25.7 0.00 0.00 0.00 29 1008.1
20260507210035 15 283 9.7 30.6 0.00 0.00 0.00 30 1008.2
20260507205531 15 269 11.3 30.6 0.00 0.00 0.00 29 1008.2
20260507205031 15 323 16.1 30.6 0.00 0.00 0.00 31 1008.3
20260507204530 15 313 9.7 27.4 0.00 0.00 0.00 29 1008.4
20260507204029 15 340 9.7 27.4 0.00 0.00 0.00 29 1008.4
20260507203530 15 219 11.3 22.5 0.00 0.00 0.00 29 1008.4
20260507203040 15 309 9.7 32.2 0.00 0.00 0.00 29 1008.5
20260507202531 15 360 9.7 32.2 0.00 0.00 0.00 29 1008.6
20260507202026 15 319 19.3 32.2 0.00 0.00 0.00 29 1008.6
20260507201526 15 339 11.3 29.0 0.00 0.00 0.00 29 1008.6
20260507201025 15 136 9.7 29.0 0.00 0.00 0.00 29 1008.9
20260507200526 15 336 9.7 30.6 0.00 0.00 0.00 31 1008.8
20260507200023 15 337 17.7 30.6 0.00 0.00 0.00 30 1009.0
20260507195525 15 300 11.3 25.7 0.00 0.00 0.00 30 1009.1
20260507195022 15 287 11.3 22.5 0.00 0.00 0.00 32 1009.0
20260507194527 15 261 6.4 19.3 0.00 0.00 0.00 29 1009.0
20260507194024 15 319 11.3 20.9 0.00 0.00 0.00 32 1009.1
20260507193524 14 265 11.3 24.1 0.00 0.00 0.00 33 1009.1
20260507193021 14 256 11.3 30.6 0.00 0.00 0.00 30 1009.2
20260507192519 15 291 20.9 30.6 0.00 0.00 0.00 30 1009.2
20260507192018 14 243 8.0 24.1 0.00 0.00 0.00 31 1009.1
20260507191520 14 347 8.0 24.1 0.00 0.00 0.00 30 1009.2
20260507191017 14 273 11.3 24.1 0.00 0.00 0.00 31 1009.3
20260507190517 14 283 4.8 19.3 0.00 0.00 0.00 30 1009.2
20260507190019 14 281 8.0 24.1 0.00 0.00 0.00 33 1009.2
20260507185515 13 344 6.4 29.0 0.00 0.00 0.00 31 1009.4
20260507185016 13 273 12.9 29.0 0.00 0.00 0.00 31 1009.3
20260507184521 13 269 4.8 20.9 0.00 0.00 0.00 32 1009.1
20260507184014 13 296 6.4 35.4 0.00 0.00 0.00 33 1009.3
20260507183513 13 254 17.7 35.4 0.00 0.00 0.00 32 1009.4
20260507183014 13 254 20.9 35.4 0.00 0.00 0.00 31 1009.5
20260507182513 13 279 14.5 30.6 0.00 0.00 0.00 32 1009.4
20260507182013 13 281 4.8 24.1 0.00 0.00 0.00 32 1009.5
20260507181511 13 311 9.7 24.1 0.00 0.00 0.00 33 1009.6
20260507181013 13 236 8.0 27.4 0.00 0.00 0.00 34 1009.7
20260507180512 13 284 12.9 27.4 0.00 0.00 0.00 33 1009.9
20260507180017 13 330 9.7 24.1 0.00 0.00 0.00 35 1009.9
20260507175511 13 296 11.3 25.7 0.00 0.00 0.00 34 1009.9
20260507175008 13 234 11.3 25.7 0.00 0.00 0.00 35 1009.8
20260507174508 13 250 11.3 29.0 0.00 0.00 0.00 35 1009.9
20260507174010 12 269 9.7 29.0 0.00 0.00 0.00 36 1010.0
20260507173506 12 286 8.0 20.9 0.00 0.00 0.00 35 1010.2
20260507173011 13 308 3.2 27.4 0.00 0.00 0.00 36 1010.2
20260507172505 13 271 12.9 27.4 0.00 0.00 0.00 35 1010.3
20260507172003 13 329 9.7 24.1 0.00 0.00 0.00 37 1010.3
20260507171503 12 281 8.0 25.7 0.00 0.00 0.00 37 1010.4
20260507171002 12 270 11.3 22.5 0.00 0.00 0.00 37 1010.6
20260507170502 12 283 12.9 27.4 0.00 0.00 0.00 37 1010.5
20260507170105 12 252 14.5 27.4 0.00 0.00 0.00 36 1010.6
20260507170002 12 267 9.7 25.7 0.00 0.00 0.00 36 1010.6
20260507165559 12 333 11.3 25.7 0.00 0.00 0.00 37 1010.6
20260507165101 12 288 8.0 24.1 0.00 0.00 0.00 37 1010.7
20260507164559 12 269 9.7 22.5 0.00 0.00 0.00 38 1010.7
20260507164057 12 282 8.0 22.5 0.00 0.00 0.00 37 1010.7
20260507163557 11 269 6.4 22.5 0.00 0.00 0.00 36 1010.8
20260507163056 12 268 8.0 24.1 0.00 0.00 0.00 38 1010.9
20260507162557 12 88 6.4 24.1 0.00 0.00 0.00 38 1010.7
20260507162056 12 269 9.7 24.1 0.00 0.00 0.00 40 1010.9
20260507161602 11 263 11.3 24.1 0.00 0.00 0.00 41 1010.9
20260507161053 11 281 9.7 27.4 0.00 0.00 0.00 41 1011.0
20260507160553 12 282 11.3 19.3 0.00 0.00 0.00 42 1011.1
20260507160059 11 282 9.7 19.3 0.00 0.00 0.00 43 1011.1
20260507155549 11 279 8.0 14.5 0.00 0.00 0.00 45 1011.1
20260507155048 11 272 6.4 14.5 0.00 0.00 0.00 46 1011.2
20260507154547 11 281 4.8 11.3 0.00 0.00 0.00 48 1011.1
20260507154044 11 198 3.2 22.5 0.00 0.00 0.00 47 1011.2
20260507153543 10 281 11.3 22.5 0.00 0.00 0.00 48 1011.1
20260507153042 10 254 3.2 16.1 0.00 0.00 0.00 48 1011.1
20260507152541 10 246 6.4 19.3 0.00 0.00 0.00 49 1011.2
20260507152039 10 331 8.0 19.3 0.00 0.00 0.00 49 1011.2
20260507151538 10 249 9.7 22.5 0.00 0.00 0.00 49 1011.2
20260507151036 10 291 8.0 14.5 0.00 0.00 0.00 50 1011.3
20260507150535 10 278 4.8 19.3 0.00 0.00 0.00 52 1011.4
20260507150039 9 199 3.2 22.5 0.00 0.00 0.00 54 1011.4
20260507145533 8 274 9.7 19.3 0.00 0.00 0.00 54 1011.4
20260507145033 8 263 8.0 17.7 0.00 0.00 0.00 55 1011.4
20260507144531 8 275 4.8 16.1 0.00 0.00 0.00 56 1011.5
20260507144029 8 311 4.8 16.1 0.00 0.00 0.00 57 1011.7
20260507143526 7 257 1.6 11.3 0.00 0.00 0.00 59 1011.6
20260507143026 7 249 3.2 11.3 0.00 0.00 0.00 62 1011.7
20260507142524 6 277 3.2 11.3 0.00 0.00 0.00 65 1011.8
20260507142027 5 250 4.8 9.7 0.00 0.00 0.00 68 1011.8
20260507141526 5 222 3.2 11.3 0.00 0.00 0.00 69 1011.7
20260507141020 4 221 1.6 12.9 0.00 0.00 0.00 70 1011.7
20260507140521 3 254 3.2 12.9 0.00 0.00 0.00 71 1011.9
20260507140017 3 231 1.6 9.7 0.00 0.00 0.00 71 1011.9
20260507135515 3 209 3.2 8.0 0.00 0.00 0.00 71 1011.9
20260507135014 3 262 1.6 9.7 0.00 0.00 0.00 72 1011.9
20260507134513 2 192 1.6 9.7 0.00 0.00 0.00 72 1011.9
20260507134011 2 221 3.2 8.0 0.00 0.00 0.00 72 1011.8
20260507133510 2 257 3.2 9.7 0.00 0.00 0.00 73 1011.8
20260507133011 2 255 3.2 9.7 0.00 0.00 0.00 73 1011.8
20260507132512 2 207 4.8 9.7 0.00 0.00 0.00 73 1011.8
20260507132007 1 198 4.8 9.7 0.00 0.00 0.00 74 1011.8
20260507131509 1 223 3.2 6.4 0.00 0.00 0.00 74 1011.8
20260507131005 1 186 3.2 6.4 0.00 0.00 0.00 74 1011.8
20260507130505 1 186 1.6 6.4 0.00 0.00 0.00 73 1011.8
20260507130005 1 186 3.2 6.4 0.00 0.00 0.00 73 1011.8
20260507125504 1 180 0.0 4.8 0.00 0.00 0.00 73 1011.8
20260507125108 1 175 1.6 6.4 0.00 0.00 0.00 73 1011.8
20260507124503 0 169 3.2 8.0 0.00 0.00 0.00 74 1011.8
20260507124002 0 161 0.0 4.8 0.00 0.00 0.00 76 1011.9
20260507123600 0 161 0.0 4.8 0.00 0.00 0.00 77 1011.9
20260507123059 -1 161 0.0 3.2 0.00 0.00 0.00 77 1011.8
20260507122559 -1 161 0.0 3.2 0.00 0.00 0.00 79 1011.8
20260507122058 -2 161 0.0 0.0 0.00 0.00 0.00 79 1011.8
20260507121559 -2 161 0.0 0.0 0.00 0.00 0.00 80 1011.9
20260507121058 -2 161 0.0 0.0 0.00 0.00 0.00 80 1011.9
20260507120557 -2 161 0.0 0.0 0.00 0.00 0.00 80 1011.7
20260507120055 -2 161 0.0 0.0 0.00 0.00 0.00 81 1011.7
20260507115554 -3 161 0.0 0.0 0.00 0.00 0.00 81 1011.7
20260507115054 -3 161 0.0 0.0 0.00 0.00 0.00 81 1011.6
20260507114603 -3 161 0.0 0.0 0.00 0.00 0.00 81 1011.5
20260507114051 -3 161 0.0 0.0 0.00 0.00 0.00 81 1011.5
20260507113550 -3 161 0.0 0.0 0.00 0.00 0.00 81 1011.5
20260507113050 -3 161 0.0 0.0 0.00 0.00 0.00 81 1011.5
20260507112550 -3 161 0.0 0.0 0.00 0.00 0.00 81 1011.4
20260507112052 -4 161 0.0 0.0 0.00 0.00 0.00 81 1011.4
20260507111549 -4 161 0.0 0.0 0.00 0.00 0.00 81 1011.4
20260507111048 -4 161 0.0 0.0 0.00 0.00 0.00 80 1011.4
20260507110551 -4 161 0.0 1.6 0.00 0.00 0.00 80 1011.4
20260507110048 -3 161 0.0 3.2 0.00 0.00 0.00 80 1011.4
20260507105546 -3 161 0.0 3.2 0.00 0.00 0.00 79 1011.4
20260507105049 -3 161 0.0 4.8 0.00 0.00 0.00 79 1011.4
20260507104546 -3 161 1.6 6.4 0.00 0.00 0.00 79 1011.5
20260507104045 -3 161 1.6 8.0 0.00 0.00 0.00 79 1011.4
20260507103545 -3 161 3.2 8.0 0.00 0.00 0.00 79 1011.4
20260507103048 -3 162 1.6 8.0 0.00 0.00 0.00 79 1011.4
20260507102543 -3 162 3.2 8.0 0.00 0.00 0.00 79 1011.5
20260507102043 -3 163 1.6 4.8 0.00 0.00 0.00 79 1011.4
20260507101546 -3 163 0.0 4.8 0.00 0.00 0.00 79 1011.5
20260507101041 -3 163 1.6 6.4 0.00 0.00 0.00 78 1011.5
20260507100540 -3 163 1.6 8.0 0.00 0.00 0.00 78 1011.5
20260507100040 -3 165 3.2 8.0 0.00 0.00 0.00 78 1011.6
20260507095539 -3 169 3.2 8.0 0.00 0.00 0.00 78 1011.5
20260507095038 -3 163 3.2 4.8 0.00 0.00 0.00 78 1011.6
20260507094549 -3 165 1.6 4.8 0.00 0.00 0.00 77 1011.6
20260507094036 -3 165 1.6 4.8 0.00 0.00 0.00 77 1011.7
20260507093536 -3 167 1.6 8.0 0.00 0.00 0.00 77 1011.7
20260507093037 -3 167 3.2 8.0 0.00 0.00 0.00 77 1011.8
20260507092535 -3 169 3.2 6.4 0.00 0.00 0.00 77 1011.8
20260507092035 -2 170 1.6 4.8 0.00 0.00 0.00 76 1011.7
20260507091535 -2 170 1.6 6.4 0.00 0.00 0.00 77 1011.7
20260507091035 -2 171 3.2 6.4 0.00 0.00 0.00 77 1011.7
20260507090533 -3 175 1.6 6.4 0.00 0.00 0.00 77 1011.8
20260507090032 -3 177 1.6 6.4 0.00 0.00 0.00 76 1011.7
20260507085531 -3 182 1.6 4.8 0.00 0.00 0.00 76 1011.8
20260507085031 -3 182 0.0 4.8 0.00 0.00 0.00 76 1011.8
20260507084536 -3 182 1.6 4.8 0.00 0.00 0.00 76 1011.8
20260507084029 -3 183 1.6 4.8 0.00 0.00 0.00 75 1011.8
20260507083528 -2 184 1.6 4.8 0.00 0.00 0.00 75 1011.8
20260507083027 -2 184 0.0 4.8 0.00 0.00 0.00 75 1011.9
20260507082527 -2 184 0.0 4.8 0.00 0.00 0.00 74 1011.8
20260507082125 -2 185 1.6 4.8 0.00 0.00 0.00 74 1011.8
20260507081526 -2 187 0.0 4.8 0.00 0.00 0.00 74 1011.8
20260507081023 -2 187 0.0 4.8 0.00 0.00 0.00 74 1011.8
20260507080523 -2 188 0.0 4.8 0.00 0.00 0.00 73 1011.7
20260507080021 -2 188 0.0 0.0 0.00 0.00 0.00 73 1011.6
20260507075520 -2 189 0.0 0.0 0.00 0.00 0.00 73 1011.7
20260507075020 -2 189 0.0 0.0 0.00 0.00 0.00 73 1011.7
20260507074520 -2 189 0.0 0.0 0.00 0.00 0.00 73 1011.7
20260507074018 -2 189 0.0 0.0 0.00 0.00 0.00 73 1011.7
20260507073521 -2 189 0.0 0.0 0.00 0.00 0.00 72 1011.7
20260507073018 -2 189 0.0 3.2 0.00 0.00 0.00 72 1011.8
20260507072517 -2 188 0.0 3.2 0.00 0.00 0.00 72 1011.8
20260507072016 -2 188 0.0 4.8 0.00 0.00 0.00 71 1011.8
20260507071518 -2 188 0.0 4.8 0.00 0.00 0.00 71 1011.8
20260507071014 -2 189 0.0 4.8 0.00 0.00 0.00 71 1011.8
20260507070514 -1 190 0.0 0.0 0.00 0.00 0.00 71 1011.8
20260507070020 -1 190 0.0 0.0 0.00 0.00 0.00 71 1011.9
20260507065513 -1 190 0.0 1.6 0.00 0.00 0.00 71 1011.9
20260507065015 -1 190 0.0 3.2 0.00 0.00 0.00 70 1012.0
20260507064514 -1 190 1.6 3.2 0.00 0.00 0.00 69 1012.0
20260507064008 -1 190 0.0 4.8 0.00 0.00 0.00 68 1012.0
20260507063507 -1 190 1.6 4.8 0.00 0.00 0.00 67 1012.1
20260507063007 0 190 0.0 4.8 0.00 0.00 0.00 67 1012.1
20260507062504 0 190 1.6 4.8 0.00 0.00 0.00 67 1012.1
20260507062103 0 190 0.0 3.2 0.00 0.00 0.00 66 1012.2
20260507061502 0 190 0.0 3.2 0.00 0.00 0.00 66 1012.2
20260507061003 0 190 0.0 3.2 0.00 0.00 0.00 66 1012.2
20260507060601 0 190 0.0 6.4 0.00 0.00 0.00 66 1012.2
20260507060101 0 190 1.6 6.4 0.00 0.00 0.00 65 1012.2
20260507055601 0 190 1.6 4.8 0.00 0.00 0.00 64 1012.2
20260507055101 0 193 1.6 4.8 0.00 0.00 0.00 64 1012.1
20260507054556 1 194 1.6 4.8 0.00 0.00 0.00 63 1012.2
20260507054054 1 196 0.0 3.2 0.00 0.00 0.00 63 1012.2
20260507053553 1 196 0.0 6.4 0.00 0.00 0.00 63 1012.3
20260507053102 1 196 1.6 6.4 0.00 0.00 0.00 62 1012.4
20260507052551 1 187 0.0 4.8 0.00 0.00 0.00 62 1012.3
20260507052051 1 188 0.0 4.8 0.00 0.00 0.00 61 1012.3
20260507051550 1 188 0.0 4.8 0.00 0.00 0.00 61 1012.5
20260507051049 2 188 3.2 8.0 0.00 0.00 0.00 61 1012.5
20260507050548 2 188 1.6 9.7 0.00 0.00 0.00 61 1012.5
20260507050047 2 207 4.8 11.3 0.00 0.00 0.00 61 1012.5
20260507045547 2 194 4.8 11.3 0.00 0.00 0.00 61 1012.4
20260507045047 2 191 3.2 8.0 0.00 0.00 0.00 60 1012.5
20260507044558 2 199 4.8 9.7 0.00 0.00 0.00 60 1012.6
20260507044045 2 209 6.4 9.7 0.00 0.00 0.00 61 1012.7
20260507043544 2 202 3.2 9.7 0.00 0.00 0.00 61 1012.8
20260507043048 2 177 1.6 6.4 0.00 0.00 0.00 60 1012.7
20260507042545 2 177 1.6 6.4 0.00 0.00 0.00 60 1012.7
20260507042046 2 178 1.6 6.4 0.00 0.00 0.00 59 1012.7
20260507041547 2 182 3.2 6.4 0.00 0.00 0.00 59 1012.8
20260507041045 2 194 1.6 6.4 0.00 0.00 0.00 59 1012.9
20260507040542 2 195 1.6 6.4 0.00 0.00 0.00 58 1013.0
20260507040045 2 190 1.6 8.0 0.00 0.00 0.00 57 1013.1
20260507035541 3 188 3.2 8.0 0.00 0.00 0.00 57 1013.1
20260507035041 3 180 1.6 8.0 0.00 0.00 0.00 57 1013.2
20260507034544 3 175 3.2 8.0 0.00 0.00 0.00 57 1013.2
20260507034039 3 175 0.0 6.4 0.00 0.00 0.00 57 1013.3
20260507033539 3 171 1.6 8.0 0.00 0.00 0.00 57 1013.3
20260507033050 3 184 1.6 8.0 0.00 0.00 0.00 57 1013.3
20260507032539 2 179 1.6 9.7 0.00 0.00 0.00 57 1013.4
20260507032041 3 191 1.6 8.0 0.00 0.00 0.00 57 1013.4
20260507031553 3 190 0.0 8.0 0.00 0.00 0.00 56 1013.4
20260507031041 3 177 3.2 8.0 0.00 0.00 0.00 56 1013.5
20260507030538 3 192 1.6 4.8 0.00 0.00 0.00 56 1013.5
20260507030051 3 193 0.0 6.4 0.00 0.00 0.00 56 1013.5
20260507025536 3 194 1.6 6.4 0.00 0.00 0.00 56 1013.6
20260507025036 3 192 1.6 6.4 0.00 0.00 0.00 55 1013.6
20260507024555 3 193 1.6 6.4 0.00 0.00 0.00 55 1013.6
20260507024035 3 208 1.6 6.4 0.00 0.00 0.00 55 1013.7
20260507023535 4 215 1.6 4.8 0.00 0.00 0.00 54 1013.6
20260507023035 4 218 1.6 4.8 0.00 0.00 0.00 54 1013.6
20260507022535 4 219 0.0 4.8 0.00 0.00 0.00 54 1013.6
20260507022036 5 219 0.0 4.8 0.00 0.00 0.00 54 1013.6
20260507021537 5 221 0.0 4.8 0.00 0.00 0.00 54 1013.6
20260507021035 5 222 1.6 4.8 0.00 0.00 0.00 53 1013.7
20260507020536 5 223 1.6 4.8 0.00 0.00 0.00 52 1013.7
20260507020047 5 223 1.6 4.8 0.00 0.00 0.00 52 1013.6
20260507015535 5 223 0.0 4.8 0.00 0.00 0.00 52 1013.7
20260507015039 5 223 0.0 8.0 0.00 0.00 0.00 52 1013.7
20260507014543 5 223 3.2 8.0 0.00 0.00 0.00 51 1013.7
20260507014034 6 234 0.0 3.2 0.00 0.00 0.00 51 1013.7
20260507013537 6 234 0.0 4.8 0.00 0.00 0.00 50 1013.6
20260507013039 6 234 1.6 4.8 0.00 0.00 0.00 50 1013.6
20260507012534 6 235 0.0 3.2 0.00 0.00 0.00 50 1013.6
20260507012035 6 235 0.0 6.4 0.00 0.00 0.00 49 1013.7
20260507011537 6 234 1.6 6.4 0.00 0.00 0.00 49 1013.7
20260507011033 6 240 1.6 9.7 0.00 0.00 0.00 49 1013.6
20260507010533 6 237 3.2 9.7 0.00 0.00 0.00 49 1013.7